Regional Weather Roundup
Issued by NWS Green Bay, WI

Home | Current Version | Previous Version | Text Only | Print | Product List | Glossary On
Versions: 1 2 3 4 5 6 7 8 9 10 11 12 13 14 15 16 17 18 19 20 21 22 23 24 25 26 27 28 29 30 31 32 33 34 35 36 37 38 39 40 41 42 43 44 45 46 47 48 49 50
000
ASUS43 KGRB 011859
RWRGRB

NORTH-CENTRAL AND NORTHEAST WISCONSIN REGIONAL WEATHER ROUNDUP
NATIONAL WEATHER SERVICE GREEN BAY WI
200 PM CDT MON SEP 01 2014

WIZ005-009-010>012-018-019-012000-
NORTH CENTRAL WISCONSIN

CITY           SKY/WX    TMP DP  RH WIND       PRES   REMARKS
IRONWOOD       NOT AVBL
MANITOWISH WTR NOT AVBL
ARBOR VITAE    NOT AVBL
EAGLE RIVER    NOT AVBL
LAND O LAKES   NOT AVBL
RHINELANDER    PTSUNNY   70  61  73 W14       29.67S
PHILLIPS       NOT AVBL
ANTIGO         NOT AVBL
TOMAHAWK       NOT AVBL
MERRILL        NOT AVBL
$$

WIZ013-073-012000-
NORTHEAST WISCONSIN

CITY           SKY/WX    TMP DP  RH WIND       PRES   REMARKS
IRON MOUNTAIN  CLOUDY    71  62  73 SW8       29.61F
MARINETTE      CLOUDY    70  64  83 SW12      29.63S
$$

WIZ017-030-035>037-045-012000-
CENTRAL WISCONSIN

CITY           SKY/WX    TMP DP  RH WIND       PRES   REMARKS
MEDFORD        NOT AVBL
WAUSAU         LGT RAIN  70  63  78 SW12G21   29.67S
MOSINEE        PTSUNNY   70  66  88 SW13      29.69
MARSHFIELD     MOSUNNY   71  64  78 W9        29.69S
WISC RAPIDS    PTSUNNY   76  64  66 W14       29.70S
STEVENS POINT  NOT AVBL
WAUPACA        NOT AVBL
SHAWANO        NOT AVBL
CLINTONVILLE   NOT AVBL
$$

WIZ038-039-048-051-012000-
FOX VALLEY

CITY           SKY/WX    TMP DP  RH WIND       PRES   REMARKS
NWS GREEN BAY  LGT RAIN  71  67  87 SW12      29.67F
APPLETON       DRIZZLE   70  66  88 SW13      29.69F FOG
OSHKOSH        CLOUDY    72  65  78 W13G21    29.69S
FOND DU LAC    CLOUDY    73  64  73 W14G23    29.70S
$$

WIZ022-050-052-012000-
EAST CENTRAL WISCONSIN

CITY           SKY/WX    TMP DP  RH WIND       PRES   REMARKS
STURGEON BAY   CLOUDY    72  64  78 SW16G23   29.66S
MANITOWOC      NOT AVBL
SHEBOYGAN      CLOUDY    76  65  68 W9        29.69S
$$

LMZ563-521-522-541>543-012000-
LAKESHORE

STATION/POSITION TIME  TEMP    WIND        PRES    VSBY  WAVE
                       AIR SEA DIR/SP/G                  HT/PER
                 (UTC) (F)     (DEG/KT/KT) (MB)    (MI)  (FT/S)
SHEBOYGAN LKSHOR 1800   75 58  250/  9/ 12 1005.2F
KEWAUNEE LKSHORE 1800   71     210/  7/ 11 1003.8F
TWO RIVERS CG    1800                      1005.6      6   2
NORTHPORT PIER   1800   69     230/  4/ 14 1003.4F
N MID LAKE BUOY  1800   66 65  240/ 14/ 16 1003.6F         4/ 6
S GREEN BAY BUOY 1800   69     VRB 17/ 21  1005.3F
STURGEON BAY CG  1800   68 57  240/  7     1005.6   3 1/2  1
CHAMBERS ISLAND  1800   67     190/  6/ 13 1004.1S
MENOMINEE LKSHOR 1800   69     220/  8/ 11 1004.1F
$$



USA.gov is the U.S. government's official web portal to all federal, state and local government web resources and services.